Home   Weather   Coral Harbour   Past weeks

Flag for Canada Past Weather in Coral Harbour, Nunavut, Canada — Yesterday and Last 2 Weeks

Now
16 °F

Light snow. Overcast.


Feels Like: 6 °F
Forecast: 8 / 19 °F
Wind: 7 mph from Northwest

Location: Coral Harbour

Current Time: Apr 27, 2017 at 8:08:10 am

Latest Report: Apr 27, 2017 at 7:00 am


Visibility: 15 mi

Pressure: 29.91 "Hg

Humidity: 86%

Dew Point: 12 °F

Location of Coral HarbourLocation

Past Weather in Coral Harbour — Graph

°F

Coral Harbour Temperature Yesterday

Maximum temperature yesterday: 12 °F (at 1:00 pm)
Minimum temperature yesterday: -15 °F (at 3:00 am)
Average temperature yesterday: 0 °F

High & Low Weather Summary for the Past Weeks

 TemperatureHumidityPressure
High18 °F (Apr 27, 5:00 am)93% (Apr 27, 3:00 am)30.36 "Hg (Apr 27, 3:00 am)
Low-24 °F (Apr 14, 4:00 am)60% (Apr 14, 4:00 pm)29.58 "Hg (Apr 18, 5:36 am)
Average-2 °F74%30.14 "Hg
* Reported Apr 12 6:32 am — Apr 27 6:00 am, Coral Harbour, Weather by CustomWeather, © 2017

Note: Actual official high and low records may vary slightly from our data, if they occured in-between our weather recording intervals... More about our weather records

Advertising

Coral Harbour Weather History for the Previous 24 Hours

Scroll right to see more
 ConditionsComfort  
Time TempWeatherWind HumidityBarometerVisibility
6:00 am
Thu, Apr 27
16 °FLight snow. Broken clouds.13 mph86%29.89 "Hg15 mi
5:00 am18 °FLight snow. Low clouds.10 mph93%29.87 "Hg12 mi
4:00 am16 °FLight snow. Low clouds.8 mph93%29.86 "Hg6 mi
3:31 am16 °FLight snow. Mostly cloudy.5 mph93%29.87 "Hg6 mi
3:00 am16 °FLight snow. Overcast.6 mph93%29.88 "Hg6 mi
2:00 am14 °FLight snow. Mostly cloudy.5 mph85%29.89 "Hg6 mi
1:00 am14 °FLight snow. Partly cloudy.7 mph85%29.91 "Hg3 mi
11:00 pm
Wed, Apr 26
12 °FLight snow. Partly cloudy.12 mph85%29.95 "Hg3 mi
10:00 pm10 °FLight snow. Mostly cloudy.8 mph85%29.99 "Hg3 mi
9:10 pm10 °FLight snow. More clouds than sun.7 mph85%30.00 "Hg3 mi
8:00 pm9 °FLight snow. Overcast.5 mph85%30.02 "Hg15 mi
7:00 pm10 °FLight snow. Overcast.8 mph85%30.03 "Hg15 mi
6:00 pm10 °FLight snow. Overcast.15 mph79%30.05 "Hg12 mi
5:00 pm10 °FLight snow. Overcast.15 mph79%30.06 "Hg15 mi
4:00 pm12 °FLight snow. Overcast.18 mph79%30.08 "Hg15 mi
3:09 pm10 °FLight snow. Partly sunny.15 mph79%30.09 "Hg15 mi
2:00 pm12 °FLight snow. Overcast.18 mph79%30.09 "Hg15 mi
1:00 pm12 °FLight snow. Overcast.14 mph79%30.09 "Hg15 mi
12:00 pm7 °FLight snow. Overcast.6 mph78%30.11 "Hg15 mi
11:00 am3 °FLight snow. Overcast.5 mph78%30.12 "Hg15 mi
10:00 am1 °FLight snow. Overcast.No wind71%30.13 "Hg12 mi
9:32 am0 °FLight snow. Overcast.2 mph71%30.14 "Hg12 mi
9:00 am-2 °FOvercast.5 mph71%30.14 "Hg15 mi
8:00 am-8 °FPartly sunny.6 mph77%30.14 "Hg15 mi
Weather by CustomWeather, © 2017

See weather overviewHow to use our weather pages